Location: Battersea Observatory
(44.4318°N, 76.3841°W)
Time: 22:59:31
(UTC-05:00)

Tiros 1 - Visible Passes

Search period start: 22 January 2022 00:00
Search period end: 01 February 2022 00:00
Orbit: 629 x 664 km, 48.4° (Epoch: 22 January)

Date Brightness Start Highest point End Pass type
(mag) Time Alt. Az. Time Alt. Az. Time Alt. Az.
22 Jan 9.5 04:11:39 20° E 04:11:39 20° E 04:13:11 10° E visible
22 Jan 7.6 05:49:18 35° WSW 05:50:36 44° SW 05:55:03 10° SE visible
23 Jan 8.7 04:36:36 32° ESE 04:36:36 32° ESE 04:39:09 10° ESE visible
23 Jan 8.6 06:14:17 18° WSW 06:16:10 23° SW 06:19:50 10° S visible
24 Jan 8.2 05:01:39 36° SSE 05:01:39 36° SSE 05:04:44 10° SE visible
24 Jan 9.3 06:40:43 10° WSW 06:41:32 10° SW 06:42:21 10° SW visible
25 Jan 8.6 05:26:46 23° SSW 05:26:46 23° SSW 05:29:38 10° SSE visible
26 Jan 10.0 04:14:17 11° SE 04:14:17 11° SE 04:14:25 10° SE visible
26 Jan 9.3 05:51:58 11° SW 05:51:58 11° SW 05:52:49 10° SSW visible
30 Jan 9.7 20:01:23 10° SSW 20:01:59 13° SSW 20:01:59 13° SSW visible
31 Jan 9.0 18:47:02 10° S 18:49:38 15° SE 18:49:38 15° SE visible
31 Jan 9.8 20:26:37 10° SW 20:27:18 14° SW 20:27:18 14° SW visible
